GPS BIII-8 (PRN 21)

Last updated on Sat Jun 28 2025 00:03:13 GMT+0000 (Coordinated Universal Time)

1 64202U 25116A 25178.33933604 -.00000077 00000+0 00000+0 0 9996 2 64202 54.9780 45.4413 0001432 300.7010 235.6146 2.00570136 754
UTC large
Height (km)
Speed (km/s)
/
Latitude / Longitude
Inclination (degrees)
Orbital Period (minutes)
Azimuth
Elevation
Range (km)
Doppler Factor

Next 0 passes for location: London (51.5072 / 0.1276)

Sorry there are no passes over London.